Location: Morrison Observatory
(41.7012°N, 86.2315°W)
Time: 06:38:20
(UTC-04:00)

Daily predictions for brighter satellites

Satellite Brightness Start Highest point End
(mag) Time Altitude Azimuth Time Altitude Azimuth Time Altitude Azimuth
Cosmos 2061 Rocket 4.5 21:45:52 10° N 21:52:02 48° ENE 21:58:13 10° SSE
Cosmos 1408 Rocket 4.3 21:51:30 10° SSE 21:55:21 32° E 21:59:13 10° NNE
YAOGAN 6 2.8 21:53:30 10° SSE 21:57:06 59° ENE 22:00:45 10° N
Cosmos 2221 2.6 21:54:32 10° N 21:58:57 86° E 22:03:21 10° S
BREEZE-M DEB (TANK) 3.3 21:57:30 10° W 21:59:16 29° NNW 22:02:08 10° NE
Cosmos 2227 4.4 21:55:55 10° S 22:01:30 55° ESE 22:07:02 10° NNE
Envisat 3.5 21:57:06 10° S 22:02:07 63° WSW 22:07:11 10° NNW
Meteor 1-29 2.9 22:02:35 10° NNE 22:06:01 73° E 22:09:28 10° S
Cosmos 1726 3.2 22:04:20 10° NNE 22:07:35 29° ENE 22:10:46 10° SE
Cosmos 2297 Rocket 4.5 22:06:35 10° WSW 22:11:30 30° NW 22:16:28 10° N
Cosmos 1763 Rocket 4.5 22:07:32 10° N 22:12:06 32° ENE 22:16:27 11° SE
Cosmos 332 Rocket 4.2 22:10:23 10° N 22:15:10 50° ENE 22:19:41 11° SE
Terra 4.0 22:13:16 10° E 22:15:15 13° ENE 22:17:14 10° NE
Tiangong 1 0.9 22:12:34 10° W 22:15:23 72° N 22:18:10 10° E
Cosmos 1802 Rocket 4.0 22:09:39 10° N 22:15:48 68° E 22:21:55 10° SSE
ATLAS 5 CENTAUR R/B 3.3 22:12:15 10° WSW 22:16:41 41° NW 22:21:33 10° NNE
Cosmos 2263 Rocket 3.2 22:12:31 10° SSE 22:16:56 25° ESE 22:21:24 10° NE
Helios 1B rocket 3.0 22:15:16 10° N 22:19:23 63° WNW 22:23:27 10° SSW
Abrixas 2.9 22:18:02 10° SSW 22:20:29 31° SE 22:22:57 10° ENE
Cosmos 1300 3.5 22:19:51 10° N 22:23:25 35° ENE 22:26:18 14° SE
Cosmos 1766 Rocket 3.6 22:30:16 10° S 22:34:35 84° W 22:38:58 10° N
USA 234 3.7 22:29:20 10° ENE 22:35:21 38° SE 22:41:20 10° SSW
Cosmos 2016 Rocket 4.0 22:30:33 10° N 22:36:50 83° E 22:42:59 10° S
Cosmos 1328 Rocket 3.8 22:32:35 10° N 22:36:50 52° E 22:40:05 16° SSE
Cosmos 1151 Rocket 4.1 22:33:02 10° NNE 22:36:55 29° ENE 22:39:31 17° SE
SPOT 1/Viking Rocket 4.2 22:33:04 14° SE 22:37:02 42° ENE 22:41:53 10° N
SL-14 R/B 3.4 22:36:05 11° S 22:39:46 54° E 22:43:37 10° NNE
Cosmos 1242 Rocket 4.1 22:38:29 10° NNW 22:41:54 35° W 22:45:17 10° SSW
MetOp-A 4.2 22:39:46 11° SSE 22:44:53 86° WSW 22:50:16 10° NNW
Cosmos 1515 Rocket 3.9 22:41:02 10° N 22:45:14 46° ENE 22:48:00 19° SE
Cosmos 1674 4.4 22:42:42 10° SW 22:46:06 32° WNW 22:49:31 10° NNW
Cosmos 468 Rocket 4.1 22:41:10 10° NNW 22:46:16 71° WSW 22:50:42 14° S
CZ-4C R/B 3.8 22:46:15 13° ESE 22:46:27 13° ESE 22:48:55 10° ENE
ERS-1 Rocket 3.3 22:42:02 10° S 22:47:01 65° WSW 22:52:03 10° NNW
H-2A R/B 3.9 22:47:34 13° E 22:49:46 18° ENE 22:52:36 10° NNE
Cosmos 1743 Rocket 3.5 22:46:32 13° S 22:50:21 64° E 22:54:39 10° NNE
EO 1 Delta rocket 4.0 22:47:13 18° SSE 22:50:34 58° ENE 22:55:12 10° N
Cosmos 1603 4.0 22:45:23 10° NNW 22:51:00 66° WSW 22:55:40 15° S
USA 245 3.3 22:48:40 20° SSE 22:51:07 77° ENE 22:55:37 10° N
ARGOS 3.2 22:46:39 14° SSE 22:51:17 84° ENE 22:56:43 10° NNW
RESURS DK-1 2.9 22:47:27 10° NW 22:51:31 53° WSW 22:54:38 16° S
Cosmos 2058 3.7 22:50:48 21° SE 22:52:57 35° E 22:56:47 10° NNE
Cosmos 1328 3.7 22:49:32 12° S 22:53:17 79° E 22:57:21 10° N
Cosmos 1455 3.9 22:53:12 10° NNE 22:56:04 20° ENE 22:57:20 17° E
YAOGAN 11 4.2 22:55:56 18° SSE 22:59:18 86° W 23:03:53 10° NNW
Cosmos 2233 Rocket 4.2 22:53:58 10° N 23:00:04 55° ENE 23:04:08 21° SSE
Meteor 2-2 Rocket 4.5 22:57:18 10° NNW 23:03:06 75° W 23:08:08 15° S
Nimbus 7 Rocket 4.4 22:57:22 10° NNE 23:03:21 66° ESE 23:08:52 12° S
Cosmos 1503 Rocket 4.4 23:00:28 19° SSE 23:03:45 42° ESE 23:08:37 10° NNE
Cosmos 1943 3.2 22:58:19 10° NNW 23:04:00 80° ENE 23:07:41 23° SSE
Cosmos 2228 Rocket 3.2 22:59:28 10° N 23:04:04 84° W 23:07:15 20° S
Cosmos 371 Rocket 3.5 22:59:16 10° NNW 23:04:05 70° WSW 23:07:23 20° S
Cosmos 220 Rocket 4.4 22:59:45 10° SSW 23:04:09 66° WNW 23:08:31 10° NNE
Cosmos 540 Rocket 4.4 23:00:59 10° N 23:05:43 35° ENE 23:08:29 21° ESE
ERBS 3.3 23:14:23 10° WNW 23:17:32 36° SW 23:18:29 29° SSW
GPS 2-05 Rocket1 4.3 23:16:19 10° SW 23:17:47 20° SSW 23:17:47 20° SSW
H-2A R/B 2.2 23:17:24 22° S 23:20:54 81° WSW 23:26:23 10° NNW
Cosmos 1447 Rocket 4.5 23:18:48 18° S 23:23:44 79° E 23:30:06 10° N
SPOT 5 3.7 23:24:13 18° SSW 23:27:42 48° W 23:32:40 10° NNW
Lacrosse 5 3.2 23:24:26 10° WNW 23:28:45 28° WSW 23:31:05 20° SSW
SL-08 RB Rocket 4.4 23:25:52 20° SSW 23:28:48 48° W 23:33:18 10° NNW
H-2A ROCKET BODY 3.8 23:24:34 10° SSW 23:28:52 28° SSE 23:41:59 10° E
Sich 1 4.3 23:28:52 23° E 23:29:17 24° E 23:32:42 10° NE
Abrixas rocket 3.0 23:26:49 10° WNW 23:29:49 35° SW 23:29:56 35° SSW
Cosmos 2151 3.1 23:27:50 22° SSW 23:30:35 73° W 23:34:54 10° N
Landsat 7 3.8 23:35:07 31° S 23:37:23 77° WSW 23:42:10 10° NNW
Cosmos 1626 2.2 23:38:03 36° SSW 23:39:28 74° W 23:43:13 10° N
Cosmos 1356 4.4 23:38:51 22° SW 23:40:46 44° WNW 23:44:08 10° N
Cosmos 1703 3.3 23:39:14 33° SSW 23:40:55 76° W 23:44:56 10° N
SL-19 R/B 4.3 23:36:46 10° NNE 23:42:07 61° ESE 23:44:40 32° S
Cosmos 1707 Rocket 4.1 23:42:58 10° N 23:47:18 46° ENE 23:48:18 39° ESE
deb Chang Zheng 4 3.7 23:43:59 10° NNE 23:48:19 58° ESE 23:49:17 46° SSE
Cosmos 1354 Rocket 4.1 23:45:33 17° SSW 23:49:38 74° WNW 23:54:53 10° NNE
Cosmos 2278 Rocket 4.2 23:51:08 12° E 23:51:08 12° E 23:52:39 10° ENE
Tiangong 1 2.7 23:48:15 10° W 23:49:35 23° WSW 23:49:35 23° WSW
Terra 1.8 23:50:32 39° S 23:52:19 78° WSW 23:57:06 10° NNW
Cosmos 841 Rocket 4.4 23:49:20 10° NW 23:54:12 40° WSW 23:56:41 24° SSW
Abrixas 3.9 23:52:43 10° W 23:55:14 34° NNW 23:57:27 12° NE
